Time,TemperatureF,DewpointF,PressureIn,WindDirection,WindDirectionDegrees,WindSpeedMPH,WindSpeedGustMPH,Humidity,HourlyPrecipIn,Conditions,Clouds,dailyrainin,SoftwareType,DateUTC
2013-01-15 00:02:00,32.8,25.1,30.23,WSW,239,1.0,1.0,73,0.00,,,0.00,Wunderground v.1.15,2013-01-15 05:02:00,
2013-01-15 00:07:00,32.9,25.5,30.23,WSW,238,0.0,0.0,74,0.00,,,0.00,Wunderground v.1.15,2013-01-15 05:07:00,
2013-01-15 00:12:00,32.9,25.5,30.23,WSW,239,0.0,0.0,74,0.00,,,0.00,Wunderground v.1.15,2013-01-15 05:12:00,
2013-01-15 00:22:00,32.9,25.5,30.23,SW,236,0.0,0.0,74,0.00,,,0.00,Wunderground v.1.15,2013-01-15 05:22:00,
2013-01-15 00:27:00,32.9,25.5,30.24,SW,236,0.0,4.0,74,0.00,,,0.00,Wunderground v.1.15,2013-01-15 05:27:00,
2013-01-15 00:32:00,32.9,25.5,30.25,WSW,237,0.0,4.0,74,0.00,,,0.00,Wunderground v.1.15,2013-01-15 05:32:00,
2013-01-15 00:42:00,32.9,25.5,30.24,WSW,238,0.0,0.0,74,0.00,,,0.00,Wunderground v.1.15,2013-01-15 05:42:00,
2013-01-15 00:52:00,32.9,25.5,30.24,WSW,240,1.0,1.0,74,0.00,,,0.00,Wunderground v.1.15,2013-01-15 05:52:00,
2013-01-15 00:57:00,32.8,25.7,30.25,WSW,240,0.0,0.0,75,0.00,,,0.00,Wunderground v.1.15,2013-01-15 05:57:00,
2013-01-15 01:02:00,32.6,25.6,30.26,WSW,240,0.0,0.0,75,0.00,,,0.00,Wunderground v.1.15,2013-01-15 06:02:00,
2013-01-15 01:12:00,32.5,25.5,30.24,WSW,240,0.0,0.0,75,0.00,,,0.00,Wunderground v.1.15,2013-01-15 06:12:00,
2013-01-15 01:17:00,32.4,25.4,30.25,WSW,240,0.0,0.0,75,0.00,,,0.00,Wunderground v.1.15,2013-01-15 06:17:00,
2013-01-15 01:22:00,32.3,25.3,30.25,WSW,240,0.0,0.0,75,0.00,,,0.00,Wunderground v.1.15,2013-01-15 06:22:00,
2013-01-15 01:32:00,32.1,25.4,30.24,WSW,240,0.0,0.0,76,0.00,,,0.00,Wunderground v.1.15,2013-01-15 06:32:00,
2013-01-15 01:42:00,31.7,25.6,30.25,WSW,240,0.0,0.0,78,0.00,,,0.00,Wunderground v.1.15,2013-01-15 06:42:00,
2013-01-15 01:47:00,31.6,25.2,30.24,WSW,240,0.0,0.0,77,0.00,,,0.00,Wunderground v.1.15,2013-01-15 06:47:00,
2013-01-15 01:52:00,31.7,25.3,30.23,WSW,240,0.0,0.0,77,0.00,,,0.00,Wunderground v.1.15,2013-01-15 06:52:00,
2013-01-15 02:02:00,31.8,25.1,30.23,WSW,240,0.0,0.0,76,0.00,,,0.00,Wunderground v.1.15,2013-01-15 07:02:00,
2013-01-15 02:12:00,31.5,25.4,30.24,WSW,240,0.0,0.0,78,0.00,,,0.00,Wunderground v.1.15,2013-01-15 07:12:00,
2013-01-15 02:17:00,31.6,25.2,30.22,WSW,240,0.0,0.0,77,0.00,,,0.00,Wunderground v.1.15,2013-01-15 07:17:00,
2013-01-15 02:22:00,31.6,25.2,30.22,WSW,240,0.0,0.0,77,0.00,,,0.00,Wunderground v.1.15,2013-01-15 07:22:00,
2013-01-15 02:32:00,31.4,25.3,30.23,WSW,240,0.0,0.0,78,0.00,,,0.00,Wunderground v.1.15,2013-01-15 07:32:00,
2013-01-15 02:37:00,31.4,25.0,30.23,WSW,240,0.0,0.0,77,0.00,,,0.00,Wunderground v.1.15,2013-01-15 07:37:00,
2013-01-15 02:42:00,31.5,24.8,30.23,WSW,239,0.0,0.0,76,0.00,,,0.00,Wunderground v.1.15,2013-01-15 07:42:00,
2013-01-15 02:52:00,31.5,24.5,30.23,WSW,239,0.0,0.0,75,0.00,,,0.00,Wunderground v.1.15,2013-01-15 07:52:00,
2013-01-15 02:57:00,31.5,24.8,30.22,WSW,240,0.0,0.0,76,0.00,,,0.00,Wunderground v.1.15,2013-01-15 07:57:00,
2013-01-15 03:02:00,31.5,24.5,30.22,WSW,240,0.0,0.0,75,0.00,,,0.00,Wunderground v.1.15,2013-01-15 08:02:00,
2013-01-15 03:12:00,31.5,24.5,30.21,WSW,240,0.0,0.0,75,0.00,,,0.00,Wunderground v.1.15,2013-01-15 08:12:00,
2013-01-15 03:22:00,31.2,24.5,30.20,WSW,242,0.0,0.0,76,0.00,,,0.00,Wunderground v.1.15,2013-01-15 08:22:00,
2013-01-15 03:27:00,31.2,24.5,30.20,WSW,252,0.0,0.0,76,0.00,,,0.00,Wunderground v.1.15,2013-01-15 08:27:00,
2013-01-15 03:37:00,31.2,24.2,30.21,North,5,0.0,0.0,75,0.00,,,0.00,Wunderground v.1.15,2013-01-15 08:37:00,
2013-01-15 03:42:00,31.2,24.2,30.20,NNW,343,0.0,0.0,75,0.00,,,0.00,Wunderground v.1.15,2013-01-15 08:42:00,
2013-01-15 03:52:00,30.9,24.2,30.20,West,273,0.0,0.0,76,0.00,,,0.00,Wunderground v.1.15,2013-01-15 08:52:00,
2013-01-15 03:57:00,30.8,24.1,30.20,West,269,0.0,0.0,76,0.00,,,0.00,Wunderground v.1.15,2013-01-15 08:57:00,
2013-01-15 04:02:00,30.7,24.0,30.20,West,270,0.0,0.0,76,0.00,,,0.00,Wunderground v.1.15,2013-01-15 09:02:00,
2013-01-15 04:12:00,30.3,24.0,30.20,West,271,0.0,0.0,77,0.00,,,0.00,Wunderground v.1.15,2013-01-15 09:12:00,
2013-01-15 04:17:00,30.2,23.9,30.20,West,271,0.0,0.0,77,0.00,,,0.00,Wunderground v.1.15,2013-01-15 09:17:00,
2013-01-15 04:22:00,30.2,23.9,30.20,West,271,0.0,0.0,77,0.00,,,0.00,Wunderground v.1.15,2013-01-15 09:22:00,
2013-01-15 04:32:00,29.6,23.6,30.20,West,271,0.0,0.0,78,0.00,,,0.00,Wunderground v.1.15,2013-01-15 09:32:00,
2013-01-15 04:42:00,28.9,23.5,30.21,West,271,0.0,0.0,80,0.00,,,0.00,Wunderground v.1.15,2013-01-15 09:42:00,
2013-01-15 04:47:00,28.7,23.6,30.21,West,271,0.0,0.0,81,0.00,,,0.00,Wunderground v.1.15,2013-01-15 09:47:00,
2013-01-15 04:52:00,28.7,23.3,30.21,West,271,0.0,0.0,80,0.00,,,0.00,Wunderground v.1.15,2013-01-15 09:52:00,
2013-01-15 05:02:00,28.6,23.5,30.21,West,271,0.0,0.0,81,0.00,,,0.00,Wunderground v.1.15,2013-01-15 10:02:00,
2013-01-15 05:07:00,28.4,23.3,30.21,West,271,0.0,0.0,81,0.00,,,0.00,Wunderground v.1.15,2013-01-15 10:07:00,
2013-01-15 05:12:00,28.6,23.5,30.21,West,271,0.0,0.0,81,0.00,,,0.00,Wunderground v.1.15,2013-01-15 10:12:00,
2013-01-15 05:22:00,28.7,23.3,30.20,West,271,0.0,0.0,80,0.00,,,0.00,Wunderground v.1.15,2013-01-15 10:22:00,
2013-01-15 05:27:00,28.5,23.1,30.20,West,271,0.0,0.0,80,0.00,,,0.00,Wunderground v.1.15,2013-01-15 10:27:00,
2013-01-15 05:32:00,28.2,23.1,30.20,West,271,0.0,0.0,81,0.00,,,0.00,Wunderground v.1.15,2013-01-15 10:32:00,
2013-01-15 05:42:00,27.9,23.1,30.21,West,271,0.0,0.0,82,0.00,,,0.00,Wunderground v.1.15,2013-01-15 10:42:00,
2013-01-15 05:52:00,27.8,23.3,30.22,West,271,0.0,0.0,83,0.00,,,0.00,Wunderground v.1.15,2013-01-15 10:52:00,
2013-01-15 05:57:00,27.6,23.1,30.22,West,271,0.0,0.0,83,0.00,,,0.00,Wunderground v.1.15,2013-01-15 10:57:00,
2013-01-15 06:07:00,27.5,23.0,30.23,West,271,0.0,0.0,83,0.00,,,0.00,Wunderground v.1.15,2013-01-15 11:07:00,
2013-01-15 06:12:00,27.6,23.1,30.23,West,271,0.0,0.0,83,0.00,,,0.00,Wunderground v.1.15,2013-01-15 11:12:00,
2013-01-15 06:22:00,27.5,23.0,30.24,West,271,0.0,0.0,83,0.00,,,0.00,Wunderground v.1.15,2013-01-15 11:22:00,
2013-01-15 06:27:00,27.5,23.0,30.24,West,271,0.0,0.0,83,0.00,,,0.00,Wunderground v.1.15,2013-01-15 11:27:00,
2013-01-15 06:32:00,27.6,23.1,30.24,West,271,0.0,0.0,83,0.00,,,0.00,Wunderground v.1.15,2013-01-15 11:32:00,
2013-01-15 06:42:00,27.8,23.3,30.24,West,271,0.0,0.0,83,0.00,,,0.00,Wunderground v.1.15,2013-01-15 11:42:00,
2013-01-15 06:47:00,27.7,23.2,30.24,West,271,0.0,0.0,83,0.00,,,0.00,Wunderground v.1.15,2013-01-15 11:47:00,
2013-01-15 06:52:00,27.6,23.1,30.25,West,271,0.0,0.0,83,0.00,,,0.00,Wunderground v.1.15,2013-01-15 11:52:00,
2013-01-15 07:02:00,27.6,23.4,30.26,West,271,0.0,0.0,84,0.00,,,0.00,Wunderground v.1.15,2013-01-15 12:02:00,
2013-01-15 07:12:00,27.6,23.4,30.26,West,271,0.0,0.0,84,0.00,,,0.00,Wunderground v.1.15,2013-01-15 12:12:00,
2013-01-15 07:17:00,27.7,23.2,30.26,West,271,0.0,0.0,83,0.00,,,0.00,Wunderground v.1.15,2013-01-15 12:17:00,
2013-01-15 07:27:00,28.0,23.8,30.26,West,271,0.0,0.0,84,0.00,,,0.00,Wunderground v.1.15,2013-01-15 12:27:00,
2013-01-15 07:32:00,28.0,23.8,30.26,West,271,0.0,0.0,84,0.00,,,0.00,Wunderground v.1.15,2013-01-15 12:32:00,
2013-01-15 07:37:00,28.3,24.1,30.26,West,271,0.0,0.0,84,0.00,,,0.00,Wunderground v.1.15,2013-01-15 12:37:00,
2013-01-15 07:42:00,28.6,24.1,30.27,West,271,0.0,0.0,83,0.00,,,0.00,Wunderground v.1.15,2013-01-15 12:42:00,
2013-01-15 07:52:00,29.2,25.0,30.27,West,271,0.0,0.0,84,0.00,,,0.00,Wunderground v.1.15,2013-01-15 12:52:00,
2013-01-15 08:02:00,29.6,25.4,30.28,West,271,0.0,0.0,84,0.00,,,0.00,Wunderground v.1.15,2013-01-15 13:02:00,
2013-01-15 08:12:00,29.9,24.8,30.28,West,271,0.0,0.0,81,0.00,,,0.00,Wunderground v.1.15,2013-01-15 13:12:00,
2013-01-15 08:22:00,30.1,24.7,30.28,West,271,0.0,0.0,80,0.00,,,0.00,Wunderground v.1.15,2013-01-15 13:22:00,
2013-01-15 08:27:00,30.2,24.5,30.28,West,271,0.0,0.0,79,0.00,,,0.00,Wunderground v.1.15,2013-01-15 13:27:00,
2013-01-15 08:32:00,30.3,24.6,30.28,West,271,0.0,0.0,79,0.00,,,0.00,Wunderground v.1.15,2013-01-15 13:32:00,
2013-01-15 08:42:00,30.1,24.4,30.28,West,271,0.0,0.0,79,0.00,,,0.00,Wunderground v.1.15,2013-01-15 13:42:00,
2013-01-15 08:52:00,29.9,24.2,30.28,West,271,0.0,0.0,79,0.00,,,0.00,Wunderground v.1.15,2013-01-15 13:52:00,
2013-01-15 08:57:00,29.8,24.4,30.29,West,271,0.0,0.0,80,0.00,,,0.00,Wunderground v.1.15,2013-01-15 13:57:00,
2013-01-15 09:02:00,30.0,24.6,30.28,West,271,0.0,0.0,80,0.00,,,0.00,Wunderground v.1.15,2013-01-15 14:02:00,
2013-01-15 09:12:00,30.8,25.1,30.29,West,265,0.0,0.0,79,0.00,,,0.00,Wunderground v.1.15,2013-01-15 14:12:00,
2013-01-15 09:17:00,31.3,25.2,30.29,West,265,0.0,0.0,78,0.00,,,0.00,Wunderground v.1.15,2013-01-15 14:17:00,
2013-01-15 09:22:00,31.9,25.5,30.29,West,264,0.0,0.0,77,0.00,,,0.00,Wunderground v.1.15,2013-01-15 14:22:00,
2013-01-15 09:32:00,32.6,24.6,30.28,West,271,0.0,3.0,72,0.00,,,0.00,Wunderground v.1.15,2013-01-15 14:32:00,
2013-01-15 09:42:00,32.8,23.7,30.29,West,261,0.0,2.0,69,0.00,,,0.00,Wunderground v.1.15,2013-01-15 14:42:00,
2013-01-15 09:47:00,32.6,23.9,30.29,West,264,0.0,0.0,70,0.00,,,0.00,Wunderground v.1.15,2013-01-15 14:47:00,
2013-01-15 09:57:00,33.4,23.6,30.29,NNE,28,0.0,1.0,67,0.00,,,0.00,Wunderground v.1.15,2013-01-15 14:57:00,
2013-01-15 10:02:00,33.9,23.4,30.29,WSW,248,1.0,3.0,65,0.00,,,0.00,Wunderground v.1.15,2013-01-15 15:02:00,
2013-01-15 10:07:00,33.8,22.9,30.30,North,9,0.0,0.0,64,0.00,,,0.00,Wunderground v.1.15,2013-01-15 15:07:00,
2013-01-15 10:12:00,33.8,22.5,30.29,SW,226,0.0,2.0,63,0.00,,,0.00,Wunderground v.1.15,2013-01-15 15:12:00,
2013-01-15 10:22:00,34.4,23.1,30.30,WSW,253,1.0,1.0,63,0.00,,,0.00,Wunderground v.1.15,2013-01-15 15:22:00,
2013-01-15 10:32:00,34.7,21.8,30.30,WSW,244,1.0,3.0,59,0.00,,,0.00,Wunderground v.1.15,2013-01-15 15:32:00,
2013-01-15 10:42:00,33.8,22.5,30.29,North,360,1.0,1.0,63,0.00,,,0.00,Wunderground v.1.15,2013-01-15 15:42:00,
2013-01-15 10:52:00,34.4,21.9,30.29,NNW,333,1.0,1.0,60,0.00,,,0.00,Wunderground v.1.15,2013-01-15 15:52:00,
2013-01-15 10:57:00,34.4,22.3,30.29,SW,225,1.0,2.0,61,0.00,,,0.00,Wunderground v.1.15,2013-01-15 15:57:00,
2013-01-15 11:02:00,34.3,21.8,30.28,NNE,15,0.0,2.0,60,0.00,,,0.00,Wunderground v.1.15,2013-01-15 16:02:00,
2013-01-15 11:12:00,33.7,22.1,30.27,NNE,13,1.0,1.0,62,0.00,,,0.00,Wunderground v.1.15,2013-01-15 16:12:00,
2013-01-15 11:22:00,34.1,22.0,30.27,NE,41,0.0,3.0,61,0.00,,,0.00,Wunderground v.1.15,2013-01-15 16:22:00,
2013-01-15 11:32:00,33.9,23.0,30.26,NNW,346,0.0,2.0,64,0.00,,,0.00,Wunderground v.1.15,2013-01-15 16:32:00,
2013-01-15 11:42:00,34.1,22.4,30.26,NNE,26,0.0,0.0,62,0.00,,,0.00,Wunderground v.1.15,2013-01-15 16:42:00,
2013-01-15 11:47:00,34.1,22.4,30.26,West,265,0.0,0.0,62,0.00,,,0.00,Wunderground v.1.15,2013-01-15 16:47:00,
2013-01-15 11:57:00,33.4,21.8,30.25,SW,236,1.0,1.0,62,0.00,,,0.00,Wunderground v.1.15,2013-01-15 16:57:00,
2013-01-15 12:02:00,33.5,21.9,30.25,NNW,345,1.0,1.0,62,0.00,,,0.00,Wunderground v.1.15,2013-01-15 17:02:00,
2013-01-15 12:07:00,34.1,22.4,30.25,NNW,336,0.0,0.0,62,0.00,,,0.00,Wunderground v.1.15,2013-01-15 17:07:00,
2013-01-15 12:12:00,34.6,22.5,30.25,North,355,0.0,0.0,61,0.00,,,0.00,Wunderground v.1.15,2013-01-15 17:12:00,
2013-01-15 12:22:00,35.8,23.3,30.25,West,279,1.0,1.0,60,0.00,,,0.00,Wunderground v.1.15,2013-01-15 17:22:00,
2013-01-15 12:32:00,35.2,22.7,30.25,WSW,242,0.0,1.0,60,0.00,,,0.00,Wunderground v.1.15,2013-01-15 17:32:00,
2013-01-15 12:42:00,35.8,23.3,30.24,WSW,242,0.0,0.0,60,0.00,,,0.00,Wunderground v.1.15,2013-01-15 17:42:00,
2013-01-15 12:52:00,35.5,22.6,30.25,SW,229,0.0,1.0,59,0.00,,,0.00,Wunderground v.1.15,2013-01-15 17:52:00,
2013-01-15 13:02:00,36.3,22.9,30.23,SW,221,1.0,1.0,58,0.00,,,0.00,Wunderground v.1.15,2013-01-15 18:02:00,
2013-01-15 13:07:00,36.7,22.5,30.23,SW,220,0.0,0.0,56,0.00,,,0.00,Wunderground v.1.15,2013-01-15 18:07:00,
2013-01-15 13:17:00,36.7,22.5,30.24,West,269,2.0,2.0,56,0.00,,,0.00,Wunderground v.1.15,2013-01-15 18:17:00,
2013-01-15 13:22:00,36.3,22.9,30.24,WSW,248,3.0,4.0,58,0.00,,,0.00,Wunderground v.1.15,2013-01-15 18:22:00,
2013-01-15 13:27:00,36.3,22.5,30.24,West,259,3.0,3.0,57,0.00,,,0.00,Wunderground v.1.15,2013-01-15 18:27:00,
2013-01-15 13:32:00,36.3,22.9,30.24,West,267,2.0,3.0,58,0.00,,,0.00,Wunderground v.1.15,2013-01-15 18:32:00,
2013-01-15 13:42:00,36.6,22.8,30.24,North,360,1.0,4.0,57,0.00,,,0.00,Wunderground v.1.15,2013-01-15 18:42:00,
2013-01-15 13:52:00,35.9,22.5,30.24,WSW,240,1.0,1.0,58,0.00,,,0.00,Wunderground v.1.15,2013-01-15 18:52:00,
2013-01-15 14:02:00,34.9,22.4,30.25,West,273,1.0,1.0,60,0.00,,,0.00,Wunderground v.1.15,2013-01-15 19:02:00,
2013-01-15 14:12:00,34.6,22.1,30.25,SW,230,1.0,4.0,60,0.00,,,0.00,Wunderground v.1.15,2013-01-15 19:12:00,
2013-01-15 14:17:00,34.3,23.0,30.25,WSW,240,1.0,1.0,63,0.00,,,0.00,Wunderground v.1.15,2013-01-15 19:17:00,
2013-01-15 14:22:00,34.2,22.9,30.25,West,260,1.0,1.0,63,0.00,,,0.00,Wunderground v.1.15,2013-01-15 19:22:00,
2013-01-15 14:32:00,33.7,22.4,30.25,WSW,248,0.0,0.0,63,0.00,,,0.00,Wunderground v.1.15,2013-01-15 19:32:00,
2013-01-15 14:37:00,33.6,22.0,30.25,WNW,287,1.0,1.0,62,0.00,,,0.00,Wunderground v.1.15,2013-01-15 19:37:00,
2013-01-15 14:42:00,33.6,22.0,30.25,West,277,1.0,1.0,62,0.00,,,0.00,Wunderground v.1.15,2013-01-15 19:42:00,
2013-01-15 14:52:00,33.2,22.0,30.25,WNW,286,0.0,0.0,63,0.00,,,0.00,Wunderground v.1.15,2013-01-15 19:52:00,
2013-01-15 15:02:00,32.7,21.5,30.25,WNW,283,0.0,0.0,63,0.00,,,0.00,Wunderground v.1.15,2013-01-15 20:02:00,
2013-01-15 15:07:00,32.7,21.9,30.25,WNW,284,0.0,0.0,64,0.00,,,0.00,Wunderground v.1.15,2013-01-15 20:07:00,
2013-01-15 15:12:00,32.6,21.8,30.25,WNW,287,0.0,0.0,64,0.00,,,0.00,Wunderground v.1.15,2013-01-15 20:12:00,
2013-01-15 15:22:00,32.5,21.7,30.24,WNW,287,0.0,0.0,64,0.00,,,0.00,Wunderground v.1.15,2013-01-15 20:22:00,
2013-01-15 15:32:00,32.4,21.6,30.23,WNW,290,0.0,0.0,64,0.00,,,0.00,Wunderground v.1.15,2013-01-15 20:32:00,
2013-01-15 15:37:00,32.4,21.9,30.23,WNW,290,0.0,0.0,65,0.00,,,0.00,Wunderground v.1.15,2013-01-15 20:37:00,
2013-01-15 15:42:00,32.4,21.6,30.23,WNW,290,0.0,0.0,64,0.00,,,0.00,Wunderground v.1.15,2013-01-15 20:42:00,
2013-01-15 15:52:00,32.3,21.8,30.24,WNW,290,0.0,0.0,65,0.00,,,0.00,Wunderground v.1.15,2013-01-15 20:52:00,
2013-01-15 15:57:00,32.1,21.3,30.24,WNW,290,0.0,0.0,64,0.00,,,0.00,Wunderground v.1.15,2013-01-15 20:57:00,
2013-01-15 16:02:00,32.1,21.7,30.24,WNW,290,0.0,0.0,65,0.00,,,0.00,Wunderground v.1.15,2013-01-15 21:02:00,
2013-01-15 16:12:00,31.8,21.4,30.25,WNW,290,0.0,0.0,65,0.00,,,0.00,Wunderground v.1.15,2013-01-15 21:12:00,
2013-01-15 16:22:00,31.5,21.4,30.25,WNW,290,0.0,0.0,66,0.00,,,0.00,Wunderground v.1.15,2013-01-15 21:22:00,
2013-01-15 16:27:00,31.4,21.7,30.25,WNW,290,0.0,0.0,67,0.00,,,0.00,Wunderground v.1.15,2013-01-15 21:27:00,
2013-01-15 16:32:00,31.3,21.6,30.25,WNW,290,0.0,0.0,67,0.00,,,0.00,Wunderground v.1.15,2013-01-15 21:32:00,
2013-01-15 16:42:00,31.1,21.4,30.25,WNW,290,0.0,0.0,67,0.00,,,0.00,Wunderground v.1.15,2013-01-15 21:42:00,
2013-01-15 16:47:00,31.2,21.5,30.25,WNW,290,0.0,0.0,67,0.00,,,0.00,Wunderground v.1.15,2013-01-15 21:47:00,
2013-01-15 16:52:00,31.2,21.5,30.26,WNW,290,0.0,0.0,67,0.00,,,0.00,Wunderground v.1.15,2013-01-15 21:52:00,
2013-01-15 17:02:00,31.0,21.7,30.26,WNW,290,0.0,0.0,68,0.00,,,0.00,Wunderground v.1.15,2013-01-15 22:02:00,
2013-01-15 17:12:00,30.8,21.5,30.26,WNW,290,0.0,0.0,68,0.00,,,0.00,Wunderground v.1.15,2013-01-15 22:12:00,
2013-01-15 17:17:00,30.8,21.5,30.26,WNW,290,0.0,0.0,68,0.00,,,0.00,Wunderground v.1.15,2013-01-15 22:17:00,
2013-01-15 17:22:00,30.7,21.4,30.25,WNW,290,0.0,0.0,68,0.00,,,0.00,Wunderground v.1.15,2013-01-15 22:22:00,
2013-01-15 17:32:00,30.6,21.3,30.25,WNW,290,0.0,0.0,68,0.00,,,0.00,Wunderground v.1.15,2013-01-15 22:32:00,
2013-01-15 17:42:00,30.6,21.3,30.25,WNW,287,0.0,0.0,68,0.00,,,0.00,Wunderground v.1.15,2013-01-15 22:42:00,
2013-01-15 17:52:00,30.5,21.2,30.26,WNW,288,0.0,0.0,68,0.00,,,0.00,Wunderground v.1.15,2013-01-15 22:52:00,
2013-01-15 18:02:00,30.3,21.3,30.26,WNW,288,0.0,0.0,69,0.00,,,0.00,Wunderground v.1.15,2013-01-15 23:02:00,
2013-01-15 18:07:00,30.1,21.2,30.26,WNW,287,0.0,0.0,69,0.00,,,0.00,Wunderground v.1.15,2013-01-15 23:07:00,
2013-01-15 18:12:00,30.0,21.7,30.26,WNW,288,0.0,0.0,71,0.00,,,0.00,Wunderground v.1.15,2013-01-15 23:12:00,
2013-01-15 18:22:00,29.8,21.2,30.28,WNW,288,0.0,0.0,70,0.00,,,0.00,Wunderground v.1.15,2013-01-15 23:22:00,
2013-01-15 18:27:00,29.8,21.2,30.27,WNW,288,0.0,0.0,70,0.00,,,0.00,Wunderground v.1.15,2013-01-15 23:27:00,
2013-01-15 18:32:00,29.8,22.2,30.26,WNW,288,0.0,0.0,73,0.00,,,0.00,Wunderground v.1.15,2013-01-15 23:32:00,
2013-01-15 18:42:00,29.6,21.7,30.27,WNW,288,0.0,0.0,72,0.00,,,0.00,Wunderground v.1.15,2013-01-15 23:42:00,
2013-01-15 18:52:00,29.5,22.2,30.26,WNW,288,0.0,0.0,74,0.00,,,0.00,Wunderground v.1.15,2013-01-15 23:52:00,
2013-01-15 18:57:00,29.5,22.2,30.26,WNW,288,0.0,0.0,74,0.00,,,0.00,Wunderground v.1.15,2013-01-15 23:57:00,
2013-01-15 19:02:00,29.4,21.8,30.26,WNW,288,0.0,0.0,73,0.00,,,0.00,Wunderground v.1.15,2013-01-16 00:02:00,
2013-01-15 19:12:00,29.4,21.5,30.26,WNW,288,0.0,0.0,72,0.00,,,0.00,Wunderground v.1.15,2013-01-16 00:12:00,
2013-01-15 19:17:00,29.4,21.5,30.26,WNW,287,0.0,0.0,72,0.00,,,0.00,Wunderground v.1.15,2013-01-16 00:17:00,
2013-01-15 19:22:00,29.4,21.5,30.26,WNW,288,0.0,0.0,72,0.00,,,0.00,Wunderground v.1.15,2013-01-16 00:22:00,
2013-01-15 19:32:00,29.3,21.4,30.25,WNW,288,0.0,0.0,72,0.00,,,0.00,Wunderground v.1.15,2013-01-16 00:32:00,
2013-01-15 19:42:00,29.3,21.7,30.25,WNW,288,0.0,0.0,73,0.00,,,0.00,Wunderground v.1.15,2013-01-16 00:42:00,
2013-01-15 19:47:00,29.2,21.6,30.26,WNW,288,0.0,0.0,73,0.00,,,0.00,Wunderground v.1.15,2013-01-16 00:47:00,
2013-01-15 19:52:00,29.1,21.5,30.25,WNW,288,0.0,0.0,73,0.00,,,0.00,Wunderground v.1.15,2013-01-16 00:52:00,
2013-01-15 20:02:00,29.1,21.5,30.25,WNW,288,0.0,0.0,73,0.00,,,0.00,Wunderground v.1.15,2013-01-16 01:02:00,
2013-01-15 20:12:00,28.9,21.3,30.25,WNW,288,0.0,0.0,73,0.00,,,0.00,Wunderground v.1.15,2013-01-16 01:12:00,
2013-01-15 20:17:00,28.8,21.2,30.25,WNW,288,0.0,0.0,73,0.00,,,0.00,Wunderground v.1.15,2013-01-16 01:17:00,
2013-01-15 20:22:00,28.9,21.3,30.26,WNW,287,0.0,0.0,73,0.00,,,0.00,Wunderground v.1.15,2013-01-16 01:22:00,
2013-01-15 20:32:00,28.8,20.9,30.25,WNW,287,0.0,0.0,72,0.00,,,0.00,Wunderground v.1.15,2013-01-16 01:32:00,
2013-01-15 20:37:00,28.8,21.2,30.25,WNW,288,0.0,0.0,73,0.00,,,0.00,Wunderground v.1.15,2013-01-16 01:37:00,
2013-01-15 20:42:00,28.8,20.9,30.25,WNW,287,0.0,0.0,72,0.00,,,0.00,Wunderground v.1.15,2013-01-16 01:42:00,
2013-01-15 20:52:00,28.9,22.3,30.25,WNW,287,0.0,0.0,76,0.00,,,0.00,Wunderground v.1.15,2013-01-16 01:52:00,
2013-01-15 20:57:00,28.8,21.6,30.25,WNW,288,0.0,0.0,74,0.00,,,0.00,Wunderground v.1.15,2013-01-16 01:57:00,
2013-01-15 21:02:00,28.8,21.6,30.25,WNW,288,0.0,0.0,74,0.00,,,0.00,Wunderground v.1.15,2013-01-16 02:02:00,
2013-01-15 21:12:00,28.8,20.9,30.24,WNW,287,0.0,0.0,72,0.00,,,0.00,Wunderground v.1.15,2013-01-16 02:12:00,
2013-01-15 21:22:00,28.8,22.2,30.24,WNW,288,0.0,0.0,76,0.00,,,0.00,Wunderground v.1.15,2013-01-16 02:22:00,
2013-01-15 21:27:00,28.8,22.2,30.24,WNW,287,0.0,0.0,76,0.00,,,0.00,Wunderground v.1.15,2013-01-16 02:27:00,
2013-01-15 21:37:00,28.8,22.2,30.23,WNW,288,0.0,0.0,76,0.00,,,0.00,Wunderground v.1.15,2013-01-16 02:37:00,
2013-01-15 21:42:00,28.8,21.9,30.23,WNW,287,0.0,0.0,75,0.00,,,0.00,Wunderground v.1.15,2013-01-16 02:42:00,
2013-01-15 21:47:00,28.7,21.5,30.23,WNW,288,0.0,0.0,74,0.00,,,0.00,Wunderground v.1.15,2013-01-16 02:47:00,
2013-01-15 21:52:00,28.7,21.1,30.23,WNW,288,0.0,0.0,73,0.00,,,0.00,Wunderground v.1.15,2013-01-16 02:52:00,
2013-01-15 22:02:00,27.9,22.2,30.22,WNW,288,0.0,0.0,79,0.00,,,0.00,Wunderground v.1.15,2013-01-16 03:02:00,
2013-01-15 22:12:00,27.6,21.9,30.23,WNW,288,0.0,0.0,79,0.00,,,0.00,Wunderground v.1.15,2013-01-16 03:12:00,
2013-01-15 22:22:00,27.8,21.5,30.23,WNW,288,0.0,0.0,77,0.00,,,0.00,Wunderground v.1.15,2013-01-16 03:22:00,
2013-01-15 22:32:00,27.9,21.9,30.24,WNW,288,0.0,0.0,78,0.00,,,0.00,Wunderground v.1.15,2013-01-16 03:32:00,
2013-01-15 22:37:00,28.0,21.7,30.24,WNW,287,0.0,0.0,77,0.00,,,0.00,Wunderground v.1.15,2013-01-16 03:37:00,
2013-01-15 22:42:00,28.0,21.4,30.24,WNW,288,0.0,0.0,76,0.00,,,0.00,Wunderground v.1.15,2013-01-16 03:42:00,
2013-01-15 22:52:00,28.1,21.5,30.23,WNW,288,0.0,0.0,76,0.00,,,0.00,Wunderground v.1.15,2013-01-16 03:52:00,
2013-01-15 22:57:00,28.2,21.3,30.23,WNW,287,0.0,0.0,75,0.00,,,0.00,Wunderground v.1.15,2013-01-16 03:57:00,
2013-01-15 23:02:00,28.3,21.4,30.23,WNW,288,0.0,0.0,75,0.00,,,0.00,Wunderground v.1.15,2013-01-16 04:02:00,
2013-01-15 23:12:00,28.3,22.0,30.23,WNW,288,0.0,0.0,77,0.00,,,0.00,Wunderground v.1.15,2013-01-16 04:12:00,
2013-01-15 23:22:00,28.3,21.4,30.23,WNW,288,0.0,0.0,75,0.00,,,0.00,Wunderground v.1.15,2013-01-16 04:22:00,
2013-01-15 23:27:00,28.3,21.4,30.23,WNW,288,0.0,0.0,75,0.00,,,0.00,Wunderground v.1.15,2013-01-16 04:27:00,
2013-01-15 23:32:00,28.3,21.4,30.23,WNW,288,0.0,0.0,75,0.00,,,0.00,Wunderground v.1.15,2013-01-16 04:32:00,
2013-01-15 23:42:00,28.3,21.4,30.24,WNW,288,0.0,0.0,75,0.00,,,0.00,Wunderground v.1.15,2013-01-16 04:42:00,
2013-01-15 23:52:00,28.2,22.2,30.24,WNW,288,0.0,0.0,78,0.00,,,0.00,Wunderground v.1.15,2013-01-16 04:52:00,
2013-01-15 23:57:00,28.2,22.2,30.24,WNW,287,0.0,0.0,78,0.00,,,0.00,Wunderground v.1.15,2013-01-16 04:57:00,